[[{"header":{"parameterUnit":"m.s-1","parameterCategory":1,"la1":30.2991,"la2":30.254,"lo1":-89.0895,"lo2":-89.0444,"dy":0.0017,"dx":0.0017,"nx":28,"ny":28,"refTime":"2024-08-26T21:00:00:Z","depth":0,"parameterNumber":2,"parameterNumberName":"U-component_of_WINDS"},"data":[0,0,0,0,0,0,0,0,0,0,0,0,0,0,0,0,0,0,0,0,0,0,0,0,0,0,0,0,0,0,0,0,0,0,0,0,0,0,0,0,0,0,0,0,0,0,0,0,0,0,0,0,0,0,0,0,0,0,-1.9017,-1.9017,0,-1.9031,-1.9031,-1.9031,-1.9011,-1.901,-1.901,-1.9009,-1.9024,-1.9025,-1.9026,0,0,0,0,0,0,0,0,0,0,0,0,0,-1.8974,-1.8975,-1.9016,-1.9017,-1.9017,-1.9031,-1.9031,-1.9031,-1.9011,-1.901,-1.901,-1.9009,-1.9024,-1.9025,-1.9026,0,0,0,0,0,0,0,0,0,0,0,0,0,-1.8991,-1.8975,-1.9016,-1.9009,-1.9008,-1.9031,-1.9031,-1.9031,-1.9011,-1.901,-1.9009,-1.9008,-1.9023,-1.9025,-1.9026,-1.9057,0,0,-1.9031,-1.9032,0,0,0,0,0,0,0,0,-1.899,-1.8992,-1.901,-1.9009,-1.9009,-1.9018,-1.9021,-1.904,-1.9012,-1.901,-1.9009,-1.9008,-1.9023,-1.9024,-1.9029,-1.9058,-1.9058,-1.9031,-1.9032,-1.9033,-1.9033,0,0,0,0,0,0,0,-1.8988,-1.8991,-1.9022,-1.901,-1.9009,-1.9005,-1.9006,-1.9025,-1.9022,-1.901,-1.9009,-1.9011,-1.9022,-1.9028,-1.903,-1.9059,-1.9031,-1.9033,-1.9033,-1.9034,-1.9114,-1.9115,0,0,0,0,0,0,-1.8988,-1.8991,-1.9022,-1.9022,-1.8996,-1.9007,-1.9008,-1.9016,-1.9022,-1.9022,-1.9012,-1.901,-1.9026,-1.9028,-1.903,-1.9066,-1.9033,-1.9034,-1.9035,-1.9113,-1.9114,-1.9115,0,0,0,0,0,0,-1.8987,-1.8991,-1.9021,-1.9006,-1.901,-1.9008,-1.9018,-1.9017,-1.9022,-1.9023,-1.9023,-1.9018,-1.9025,-1.9028,-1.9051,-1.9066,-1.9035,-1.9036,-1.9111,-1.9113,-1.9115,-1.9139,0,0,0,0,0,0,-1.8986,-1.8991,-1.9002,-1.9007,-1.9011,-1.9041,-1.9019,-1.9018,-1.9025,-1.9023,-1.9028,-1.9028,-1.9024,-1.9048,-1.9052,-1.9068,-1.9038,-1.911,-1.9112,-1.9114,-1.9137,-1.9142,-1.9146,0,0,0,0,0,-1.8985,-1.9008,-1.9003,-1.9007,-1.9025,-1.9042,-1.9044,-1.9039,-1.9026,-1.9038,-1.9039,-1.9028,-1.9065,-1.9051,-1.9055,-1.9072,-1.9109,-1.9111,-1.9114,-1.9135,-1.9141,-1.9145,0,0,0,0,0,0,-1.9006,-1.9009,-1.9003,-1.9028,-1.9035,-1.9039,-1.9053,-1.9045,-1.9055,-1.9053,-1.9046,-1.9047,-1.9072,-1.9074,-1.9059,-1.9102,-1.9085,-1.9088,-1.9099,-1.9105,-1.9109,-1.9107,-1.9039,0,0,0,0,0,-1.9013,-1.9027,-1.9029,-1.9052,-1.9056,-1.9054,-1.9061,-1.9057,-1.9063,-1.9066,-1.9068,-1.9075,-1.9088,-1.9097,-1.9109,-1.9138,-1.9139,-1.9152,-1.9156,-1.916,-1.9162,-1.9178,-1.9183,-1.9124,-1.9124,-1.9124,0,0,-1.9029,-1.9033,-1.9042,-1.9056,-1.9061,-1.9075,-1.9056,-1.9072,-1.9083,-1.9068,-1.909,-1.9092,-1.91,-1.9126,-1.9137,-1.9128,-1.9179,-1.9163,-1.9166,-1.9166,-1.9181,-1.9187,-1.9192,-1.9126,-1.9125,-1.9125,0,0,-1.9065,-1.9069,-1.9089,-1.9094,-1.9101,-1.91,-1.9105,-1.911,-1.9111,-1.9133,-1.9122,-1.9135,-1.9158,-1.9164,-1.917,-1.921,-1.9201,-1.9214,-1.9236,-1.9251,-1.9256,-1.926,-1.9274,-1.9279,-1.9217,-1.9217,-1.9217,0,-1.9084,-1.9105,-1.91,-1.9116,-1.9123,-1.9112,-1.9131,-1.9137,-1.9148,-1.9153,-1.9143,-1.9172,-1.9176,-1.9203,-1.9213,-1.9219,-1.9224,-1.9212,-1.9256,-1.926,-1.9264,-1.9277,-1.9282,-1.9219,-1.9219,-1.9218,-1.9218,0,-1.9127,-1.9142,-1.9157,-1.9168,-1.9177,-1.9195,-1.9193,-1.9203,-1.9198,-1.9198,-1.9221,-1.9226,-1.9239,-1.9246,-1.9241,-1.9273,-1.9267,-1.9257,-1.9239,-1.9271,-1.9283,-1.9288,-1.9221,-1.922,-1.922,-1.922,0,0,-1.9175,-1.9184,-1.9189,-1.9194,-1.9202,-1.9214,-1.9232,-1.9245,-1.9253,-1.9262,-1.9277,-1.9297,-1.9288,-1.9295,-1.9292,-1.9305,-1.9336,-1.9293,-1.9294,-1.93,-1.9371,-1.9378,-1.9383,-1.9331,-1.9332,-1.9333,-1.937,0,-1.921,-1.9241,-1.9237,-1.9267,-1.9281,-1.9271,-1.9287,-1.9294,-1.9295,-1.9308,-1.9309,-1.9323,-1.9311,-1.9315,-1.9328,-1.933,-1.935,-1.9327,-1.9345,-1.9345,-1.9341,-1.939,-1.9397,-1.9431,-1.9375,-1.9376,-1.9376,0,-1.9255,-1.9265,-1.9296,-1.9302,-1.9308,-1.9322,-1.9334,-1.9346,-1.9354,-1.9354,-1.9363,-1.9357,-1.9376,-1.936,-1.9386,-1.937,-1.9377,-1.938,-1.9381,-1.9381,-1.9362,-1.939,-1.9442,-1.9447,-1.9384,-1.9383,-1.9383,0,-1.9285,-1.9307,-1.9328,-1.9333,-1.9341,-1.9352,-1.9356,-1.9363,-1.9371,-1.9382,-1.9387,-1.94,-1.9407,-1.9418,-1.9416,-1.9404,-1.9443,-1.9426,-1.9443,-1.9443,-1.945,-1.9449,-1.9503,-1.9457,-1.9457,-1.9457,-1.9457,0,-1.9324,-1.9343,-1.9342,-1.9355,-1.9377,-1.9373,-1.9395,-1.9398,-1.9404,-1.9418,-1.9411,-1.9424,-1.9422,-1.9435,-1.9435,-1.9456,-1.946,-1.946,-1.946,-1.946,-1.946,-1.9464,-1.9461,-1.9459,-1.9458,-1.9458,-1.9458,0,-1.9361,-1.9361,-1.9384,-1.939,-1.9392,-1.9408,-1.9413,-1.9426,-1.9427,-1.9445,-1.9449,-1.9451,-1.9467,-1.9467,-1.9484,-1.9484,-1.951,-1.9507,-1.9507,-1.9506,-1.9523,-1.9521,-1.958,-1.9587,-1.9538,-1.9538,-1.9539,0,-1.9385,-1.94,-1.9408,-1.9416,-1.9421,-1.9435,-1.9444,-1.9442,-1.9451,-1.9462,-1.9473,-1.9488,-1.95,-1.9525,-1.9528,-1.9542,-1.9539,-1.9559,-1.9541,-1.9541,-1.9538,-1.9537,-1.9538,-1.9562,-1.9562,-1.9563,-1.9563,0,-1.9428,-1.9427,-1.9439,-1.9452,-1.9462,-1.9472,-1.9481,-1.9489,-1.9488,-1.9499,-1.9514,-1.9524,-1.9542,-1.9557,-1.9571,-1.9575,-1.9569,-1.9569,-1.9573,-1.9573,-1.9572,-1.9572,-1.9515,-1.9567,-1.9567,-1.9566,-1.9566,-1.9566,-1.9458,-1.9471,-1.9479,-1.9493,-1.9499,-1.9508,-1.952,-1.9523,-1.9536,-1.9551,-1.9549,-1.9567,-1.9576,-1.9593,-1.96,-1.9614,-1.9607,-1.9614,-1.9615,-1.9617,-1.9618,-1.9571,-1.9616,-1.9616,-1.9616,-1.9616,-1.9616,0,-1.95,-1.9505,-1.9518,-1.953,-1.9542,-1.9536,-1.9546,-1.9555,-1.9571,-1.958,-1.9591,-1.961,-1.9625,-1.963,-1.9644,-1.9655,-1.9652,-1.9658,-1.9657,-1.9658,-1.9624,-1.9618,-1.966,-1.966,-1.966,-1.966,-1.966,-1.966,-1.9523,-1.9543,-1.9544,-1.9568,-1.9573,-1.959,-1.9596,-1.9605,-1.9611,-1.9632,-1.9644,-1.9648,-1.9655,-1.967,-1.9684,-1.9685,-1.969,-1.9698,-1.9698,-1.9665,-1.966,-1.9656,-1.9651,-1.9699,-1.9699,-1.9731,-1.9731,-1.9731]},{"header":{"parameterUnit":"m.s-1","parameterCategory":1,"la1":30.2991,"la2":30.254,"lo1":-89.0895,"lo2":-89.0444,"dy":0.0017,"dx":0.0017,"nx":28,"ny":28,"refTime":"2024-08-26T21:00:00:Z","depth":0,"parameterNumber":3,"parameterNumberName":"V-component_of_WINDS"},"data":[0,0,0,0,0,0,0,0,0,0,0,0,0,0,0,0,0,0,0,0,0,0,0,0,0,0,0,0,0,0,0,0,0,0,0,0,0,0,0,0,0,0,0,0,0,0,0,0,0,0,0,0,0,0,0,0,0,0,3.5797,3.5798,0,3.581,3.581,3.581,3.5808,3.5808,3.5808,3.5807,3.5819,3.5819,3.582,0,0,0,0,0,0,0,0,0,0,0,0,0,3.577,3.5771,3.5797,3.5798,3.5798,3.581,3.581,3.581,3.5808,3.5808,3.5808,3.5807,3.5819,3.5819,3.582,0,0,0,0,0,0,0,0,0,0,0,0,0,3.5782,3.5771,3.5797,3.5798,3.5798,3.581,3.581,3.581,3.5808,3.5808,3.5807,3.5807,3.5818,3.5819,3.582,3.5831,0,0,3.5822,3.5822,0,0,0,0,0,0,0,0,3.5782,3.5783,3.5798,3.5798,3.5798,3.5807,3.5805,3.5817,3.5808,3.5804,3.5807,3.5807,3.5815,3.5816,3.5819,3.5831,3.5832,3.5822,3.5823,3.5823,3.5823,0,0,0,0,0,0,0,3.5781,3.5783,3.5802,3.5798,3.5798,3.5797,3.5799,3.5807,3.5811,3.5805,3.5805,3.5806,3.5815,3.5818,3.5819,3.5832,3.5822,3.5823,3.5823,3.5824,3.5854,3.5854,0,0,0,0,0,0,3.578,3.5782,3.5802,3.5803,3.5789,3.5798,3.58,3.5805,3.5811,3.5812,3.5806,3.5806,3.5817,3.5818,3.582,3.5833,3.5823,3.5824,3.5824,3.5853,3.5854,3.5854,0,0,0,0,0,0,3.5779,3.5782,3.5801,3.5792,3.5795,3.5799,3.5804,3.5805,3.5808,3.5813,3.5813,3.5809,3.5817,3.5819,3.5828,3.5833,3.5824,3.5825,3.5853,3.5853,3.5854,3.5859,0,0,0,0,0,0,3.5779,3.5782,3.5786,3.5793,3.5795,3.581,3.5805,3.5805,3.581,3.5809,3.5815,3.5816,3.5817,3.5827,3.5829,3.5834,3.5825,3.5852,3.5853,3.5854,3.5858,3.586,3.5861,0,0,0,0,0,3.5778,3.5787,3.5786,3.5789,3.5801,3.581,3.5812,3.5813,3.581,3.5814,3.5817,3.5816,3.5832,3.5828,3.583,3.5835,3.5852,3.5853,3.5854,3.5858,3.5859,3.5861,0,0,0,0,0,0,3.578,3.5787,3.5787,3.5799,3.5804,3.581,3.5815,3.5815,3.5821,3.582,3.5821,3.5823,3.5832,3.5835,3.583,3.5846,3.5842,3.5843,3.5844,3.5846,3.5847,3.5846,3.5826,0,0,0,0,0,3.5782,3.5789,3.5795,3.5805,3.5807,3.5811,3.5815,3.5816,3.5821,3.5823,3.5827,3.5832,3.5838,3.5842,3.5848,3.5859,3.586,3.5864,3.5865,3.5866,3.5867,3.5872,3.5874,3.5857,3.5857,3.5857,0,0,3.5786,3.5791,3.5795,3.5805,3.5809,3.5817,3.5813,3.582,3.5826,3.5824,3.5833,3.5836,3.5842,3.5852,3.5857,3.5854,3.5872,3.5867,3.5867,3.5868,3.5873,3.5875,3.5876,3.5857,3.5857,3.5857,0,0,3.5796,3.5801,3.5809,3.5814,3.5821,3.5823,3.5825,3.5831,3.5833,3.5843,3.5842,3.5848,3.5859,3.5863,3.5866,3.5879,3.5877,3.5881,3.5886,3.5892,3.5893,3.5894,3.5898,3.59,3.5882,3.5882,3.5882,0,3.58,3.5811,3.5814,3.5821,3.5826,3.5826,3.5834,3.5838,3.5846,3.5849,3.5846,3.586,3.5864,3.5875,3.5878,3.5881,3.5883,3.588,3.5893,3.5894,3.5895,3.5899,3.5901,3.5882,3.5882,3.5882,3.5882,0,3.5815,3.5823,3.5829,3.5837,3.5842,3.585,3.5853,3.5858,3.5859,3.5861,3.5871,3.5875,3.5882,3.5885,3.5886,3.5896,3.5895,3.5893,3.5888,3.5897,3.5901,3.5902,3.5882,3.5882,3.5882,3.5882,0,0,3.5826,3.5837,3.5839,3.5843,3.585,3.5856,3.5864,3.5871,3.5875,3.5881,3.5887,3.5897,3.5895,3.5899,3.59,3.5905,3.5914,3.5902,3.5902,3.5904,3.5926,3.5927,3.5928,3.5914,3.5914,3.5914,3.5925,0,3.5837,3.5852,3.5855,3.5867,3.5874,3.5874,3.5881,3.5886,3.5889,3.5895,3.5898,3.5904,3.5902,3.5904,3.5909,3.5912,3.5918,3.5911,3.5919,3.5919,3.5917,3.593,3.5932,3.5942,3.5927,3.5927,3.5927,0,3.5852,3.5858,3.5872,3.5879,3.5882,3.5888,3.5895,3.5901,3.5907,3.5908,3.5913,3.5913,3.5921,3.5917,3.5927,3.5922,3.5926,3.5928,3.5928,3.5928,3.5923,3.593,3.5945,3.5946,3.5929,3.5929,3.5929,0,3.5858,3.5871,3.588,3.5884,3.5892,3.5896,3.59,3.5905,3.591,3.5916,3.5918,3.5925,3.5929,3.5934,3.5936,3.5932,3.5946,3.5942,3.5947,3.5947,3.5949,3.5949,3.5964,3.5952,3.5952,3.5952,3.5952,0,3.587,3.5878,3.5883,3.5889,3.5898,3.5901,3.5909,3.5913,3.5918,3.5924,3.5925,3.593,3.5933,3.5939,3.5941,3.5949,3.5951,3.5952,3.5952,3.5951,3.5951,3.5953,3.5952,3.5953,3.5953,3.5953,3.5953,0,3.5878,3.5882,3.5893,3.59,3.5902,3.5908,3.5914,3.592,3.5923,3.593,3.5932,3.5937,3.5944,3.5947,3.5955,3.5956,3.5965,3.5965,3.5964,3.5963,3.5968,3.5968,3.5984,3.5987,3.5974,3.5974,3.5974,0,3.5885,3.5891,3.5899,3.5904,3.5908,3.5915,3.5919,3.5923,3.5927,3.5934,3.5939,3.5946,3.5952,3.5963,3.5967,3.5973,3.5973,3.5978,3.5974,3.5973,3.5972,3.5972,3.5972,3.5979,3.5979,3.5979,3.5979,0,3.5896,3.5898,3.5905,3.5913,3.5918,3.5924,3.593,3.5934,3.5938,3.5943,3.595,3.5955,3.5964,3.5971,3.5978,3.5981,3.5981,3.5981,3.5982,3.5981,3.598,3.598,3.5965,3.598,3.598,3.598,3.598,3.598,3.5903,3.5909,3.5916,3.5923,3.5928,3.5934,3.594,3.5944,3.595,3.5958,3.5959,3.5967,3.5973,3.5982,3.5986,3.5991,3.599,3.5992,3.5993,3.5993,3.5993,3.598,3.5993,3.5993,3.5993,3.5993,3.5993,0,3.5914,3.5919,3.5926,3.5935,3.5941,3.5941,3.5947,3.5952,3.5959,3.5965,3.5971,3.598,3.5986,3.5991,3.5998,3.6001,3.6001,3.6003,3.6002,3.6003,3.5994,3.5992,3.6003,3.6003,3.6003,3.6003,3.6003,3.6003,3.5921,3.593,3.5933,3.5945,3.5949,3.5957,3.5961,3.5966,3.5971,3.598,3.5986,3.5989,3.5994,3.6002,3.6008,3.6009,3.6011,3.6013,3.6013,3.6005,3.6004,3.6003,3.6001,3.6013,3.6013,3.6022,3.6022,3.6022]}]]